| time (UTC) | temp C | wind direction | speed KPH | gust KPH | rain 1hr cm | rain 24hr cm | rain mn cm | humidity % | barometer mb |
| 20260509064003 | 10 | 181 | 8.0 | 11.3 | 0.00 | 0.00 | 0.00 | 91 | 1005.4 |
| 20260509063416 | 10 | 184 | 6.4 | 11.3 | 0.00 | 0.00 | 0.00 | 90 | 1005.4 |
| 20260509062614 | 10 | 178 | 8.0 | 11.3 | 0.00 | 0.00 | 0.00 | 89 | 1005.5 |
| 20260509061603 | 11 | 176 | 8.0 | 12.9 | 0.00 | 0.00 | 0.00 | 88 | 1005.5 |
| 20260509060803 | 11 | 179 | 6.4 | 11.3 | 0.00 | 0.00 | 0.00 | 88 | 1005.5 |
| 20260509060216 | 11 | 184 | 6.4 | 11.3 | 0.00 | 0.00 | 0.00 | 87 | 1005.6 |
| 20260509055603 | 11 | 186 | 6.4 | 9.7 | 0.00 | 0.00 | 0.00 | 87 | 1005.8 |
| 20260509054803 | 11 | 183 | 6.4 | 12.9 | 0.00 | 0.00 | 0.00 | 86 | 1005.8 |
| 20260509054003 | 11 | 189 | 6.4 | 11.3 | 0.00 | 0.00 | 0.00 | 86 | 1005.9 |
| 20260509053203 | 11 | 190 | 8.0 | 9.7 | 0.00 | 0.00 | 0.00 | 86 | 1005.9 |
| 20260509052403 | 11 | 188 | 6.4 | 12.9 | 0.00 | 0.00 | 0.00 | 86 | 1006.0 |
| 20260509051814 | 11 | 189 | 6.4 | 12.9 | 0.00 | 0.00 | 0.00 | 85 | 1006.0 |
| 20260509050803 | 11 | 179 | 6.4 | 11.3 | 0.00 | 0.00 | 0.00 | 84 | 1006.0 |
| 20260509050003 | 11 | 173 | 8.0 | 12.9 | 0.00 | 0.00 | 0.00 | 84 | 1006.1 |
| 20260509045816 | 11 | 173 | 8.0 | 12.9 | 0.00 | 0.00 | 0.00 | 83 | 1006.1 |
| 20260509045014 | 11 | 173 | 8.0 | 12.9 | 0.00 | 0.00 | 0.00 | 83 | 1006.0 |
| 20260509044213 | 12 | 181 | 8.0 | 12.9 | 0.00 | 0.00 | 0.00 | 82 | 1006.0 |
| 20260509043417 | 12 | 186 | 6.4 | 12.9 | 0.00 | 0.00 | 0.00 | 81 | 1006.2 |
| 20260509042616 | 12 | 188 | 6.4 | 9.7 | 0.00 | 0.00 | 0.00 | 81 | 1006.3 |
| 20260509041603 | 12 | 179 | 6.4 | 12.9 | 0.00 | 0.00 | 0.00 | 80 | 1006.4 |
| 20260509040804 | 12 | 173 | 8.0 | 12.9 | 0.00 | 0.00 | 0.00 | 80 | 1006.4 |
| 20260509040006 | 12 | 178 | 8.0 | 11.3 | 0.00 | 0.00 | 0.00 | 79 | 1006.5 |
| 20260509035603 | 12 | 184 | 6.4 | 11.3 | 0.00 | 0.00 | 0.00 | 78 | 1006.5 |
| 20260509035015 | 12 | 186 | 6.4 | 11.3 | 0.00 | 0.00 | 0.00 | 78 | 1006.6 |
| 20260509034003 | 12 | 190 | 6.4 | 11.3 | 0.00 | 0.00 | 0.00 | 77 | 1006.7 |
| 20260509033203 | 12 | 192 | 6.4 | 11.3 | 0.00 | 0.00 | 0.00 | 77 | 1006.7 |
| 20260509032403 | 12 | 192 | 6.4 | 11.3 | 0.00 | 0.00 | 0.00 | 77 | 1006.7 |
| 20260509031815 | 13 | 188 | 8.0 | 11.3 | 0.00 | 0.00 | 0.00 | 76 | 1006.9 |
| 20260509030803 | 13 | 186 | 6.4 | 12.9 | 0.00 | 0.00 | 0.00 | 77 | 1007.0 |
| 20260509030003 | 13 | 188 | 6.4 | 9.7 | 0.00 | 0.00 | 0.00 | 77 | 1007.0 |
| 20260509025817 | 13 | 191 | 6.4 | 9.7 | 0.00 | 0.00 | 0.00 | 77 | 1006.9 |
| 20260509024803 | 13 | 191 | 6.4 | 11.3 | 0.00 | 0.00 | 0.00 | 77 | 1006.9 |
| 20260509024003 | 13 | 191 | 6.4 | 9.7 | 0.00 | 0.00 | 0.00 | 76 | 1007.0 |
| 20260509023413 | 13 | 194 | 6.4 | 11.3 | 0.00 | 0.00 | 0.00 | 77 | 1007.0 |
| 20260509022403 | 13 | 184 | 8.0 | 11.3 | 0.00 | 0.00 | 0.00 | 77 | 1007.0 |
| 20260509021603 | 13 | 175 | 9.7 | 14.5 | 0.00 | 0.00 | 0.00 | 78 | 1007.0 |
| 20260509020803 | 13 | 167 | 6.4 | 12.9 | 0.00 | 0.00 | 0.00 | 80 | 1007.0 |
| 20260509020213 | 13 | 172 | 1.6 | 8.0 | 0.00 | 0.00 | 0.00 | 79 | 1007.0 |
| 20260509015812 | 13 | 0 | 0.0 | 0.0 | 0.00 | 0.00 | 0.00 | 78 | 1006.9 |
| 20260509015016 | 13 | 0 | 0.0 | 0.0 | 0.00 | 0.00 | 0.00 | 77 | 1006.9 |
| 20260509014003 | 13 | 0 | 0.0 | 0.0 | 0.00 | 0.00 | 0.00 | 76 | 1007.0 |
| 20260509013203 | 13 | 0 | 0.0 | 0.0 | 0.00 | 0.00 | 0.00 | 75 | 1006.8 |
| 20260509012612 | 13 | 0 | 0.0 | 0.0 | 0.00 | 0.00 | 0.00 | 75 | 1006.8 |
| 20260509011603 | 14 | 0 | 0.0 | 0.0 | 0.00 | 0.00 | 0.00 | 74 | 1006.8 |
| 20260509011015 | 14 | 0 | 0.0 | 0.0 | 0.00 | 0.00 | 0.00 | 73 | 1006.8 |
| 20260509010214 | 14 | 188 | 1.6 | 3.2 | 0.00 | 0.00 | 0.00 | 73 | 1006.7 |
| 20260509005603 | 14 | 188 | 3.2 | 4.8 | 0.00 | 0.00 | 0.00 | 72 | 1006.7 |
| 20260509004803 | 15 | 192 | 3.2 | 6.4 | 0.00 | 0.00 | 0.00 | 71 | 1006.7 |
| 20260509004003 | 15 | 179 | 3.2 | 8.0 | 0.00 | 0.00 | 0.00 | 70 | 1006.7 |
| 20260509003203 | 15 | 175 | 6.4 | 9.7 | 0.00 | 0.03 | 0.00 | 70 | 1006.7 |
| 20260509002613 | 15 | 174 | 6.4 | 9.7 | 0.00 | 0.03 | 0.00 | 69 | 1006.7 |
| 20260509001603 | 15 | 169 | 8.0 | 11.3 | 0.00 | 0.03 | 0.00 | 67 | 1006.7 |
| 20260509000803 | 15 | 164 | 8.0 | 11.3 | 0.00 | 0.08 | 0.00 | 67 | 1006.7 |
| 20260509000003 | 16 | 166 | 8.0 | 12.9 | 0.00 | 0.10 | 0.00 | 66 | 1006.4 |
| 20260508235603 | 16 | 176 | 8.0 | 12.9 | 0.00 | 0.15 | 0.00 | 65 | 1006.4 |
| 20260508234803 | 16 | 177 | 6.4 | 11.3 | 0.00 | 0.20 | 0.00 | 63 | 1006.7 |
| 20260508234216 | 16 | 188 | 3.2 | 8.0 | 0.00 | 0.23 | 0.00 | 64 | 1006.7 |
| 20260508233415 | 16 | 200 | 3.2 | 6.4 | 0.00 | 0.25 | 0.00 | 62 | 1006.7 |
| 20260508232614 | 16 | 163 | 0.0 | 3.2 | 0.00 | 0.25 | 0.00 | 59 | 1006.7 |
| 20260508231813 | 16 | 163 | 0.0 | 1.6 | 0.00 | 0.25 | 0.00 | 58 | 1006.7 |
| 20260508231016 | 16 | 189 | 0.0 | 1.6 | 0.00 | 0.25 | 0.00 | 57 | 1006.7 |
| 20260508230215 | 16 | 0 | 0.0 | 0.0 | 0.00 | 0.25 | 0.00 | 60 | 1006.7 |
| 20260508225814 | 16 | 202 | 0.0 | 4.8 | 0.00 | 0.25 | 0.00 | 57 | 1006.8 |
| 20260508224803 | 16 | 186 | 3.2 | 9.7 | 0.00 | 0.25 | 0.00 | 56 | 1006.8 |
| 20260508224217 | 16 | 213 | 1.6 | 6.4 | 0.00 | 0.25 | 0.00 | 57 | 1006.8 |
| 20260508223416 | 16 | 181 | 1.6 | 6.4 | 0.00 | 0.25 | 0.00 | 58 | 1006.8 |
| 20260508222403 | 16 | 190 | 3.2 | 8.0 | 0.00 | 0.25 | 0.00 | 57 | 1006.9 |
| 20260508221813 | 16 | 186 | 3.2 | 9.7 | 0.00 | 0.25 | 0.00 | 53 | 1006.9 |
| 20260508221017 | 16 | 198 | 3.2 | 6.4 | 0.00 | 0.25 | 0.00 | 55 | 1006.9 |
| 20260508220003 | 16 | 203 | 3.2 | 8.0 | 0.00 | 0.25 | 0.00 | 57 | 1006.9 |
| 20260508215815 | 16 | 187 | 3.2 | 9.7 | 0.00 | 0.25 | 0.00 | 59 | 1006.9 |
| 20260508214803 | 16 | 171 | 6.4 | 17.7 | 0.00 | 0.25 | 0.00 | 57 | 1006.9 |
| 20260508214212 | 16 | 175 | 8.0 | 17.7 | 0.00 | 0.25 | 0.00 | 60 | 1006.9 |
| 20260508213203 | 16 | 165 | 6.4 | 11.3 | 0.00 | 0.25 | 0.00 | 61 | 1006.9 |
| 20260508212615 | 16 | 186 | 4.8 | 11.3 | 0.00 | 0.25 | 0.00 | 61 | 1007.0 |
| 20260508211814 | 16 | 184 | 6.4 | 14.5 | 0.00 | 0.25 | 0.00 | 61 | 1007.2 |
| 20260508210803 | 16 | 202 | 3.2 | 9.7 | 0.00 | 0.25 | 0.00 | 61 | 1007.3 |
| 20260508210216 | 15 | 189 | 4.8 | 11.3 | 0.00 | 0.25 | 0.00 | 62 | 1007.3 |
| 20260508205816 | 15 | 181 | 6.4 | 12.9 | 0.00 | 0.25 | 0.00 | 63 | 1007.3 |
| 20260508204803 | 15 | 186 | 9.7 | 17.7 | 0.00 | 0.25 | 0.00 | 64 | 1007.4 |
| 20260508204003 | 15 | 179 | 9.7 | 17.7 | 0.00 | 0.25 | 0.00 | 65 | 1007.6 |
| 20260508203417 | 15 | 178 | 11.3 | 17.7 | 0.00 | 0.25 | 0.00 | 62 | 1007.7 |
| 20260508202616 | 16 | 184 | 6.4 | 12.9 | 0.00 | 0.25 | 0.00 | 63 | 1007.8 |
| 20260508201814 | 16 | 197 | 4.8 | 9.7 | 0.00 | 0.25 | 0.00 | 62 | 1007.8 |
| 20260508200803 | 15 | 181 | 8.0 | 12.9 | 0.00 | 0.25 | 0.00 | 64 | 1007.9 |
| 20260508200217 | 15 | 179 | 9.7 | 16.1 | 0.00 | 0.25 | 0.00 | 64 | 1008.1 |
| 20260508195603 | 15 | 176 | 9.7 | 16.1 | 0.00 | 0.25 | 0.00 | 64 | 1008.1 |
| 20260508194803 | 15 | 182 | 11.3 | 19.3 | 0.00 | 0.25 | 0.00 | 62 | 1008.3 |
| 20260508194214 | 15 | 177 | 11.3 | 19.3 | 0.00 | 0.25 | 0.00 | 62 | 1008.4 |
| 20260508193203 | 15 | 180 | 11.3 | 19.3 | 0.00 | 0.25 | 0.00 | 62 | 1008.4 |
| 20260508192616 | 15 | 183 | 9.7 | 19.3 | 0.00 | 0.25 | 0.00 | 64 | 1008.4 |
| 20260508191815 | 15 | 179 | 12.9 | 19.3 | 0.00 | 0.25 | 0.00 | 66 | 1008.4 |
| 20260508190803 | 15 | 177 | 12.9 | 19.3 | 0.00 | 0.25 | 0.00 | 66 | 1008.8 |
| 20260508190213 | 15 | 177 | 14.5 | 19.3 | 0.00 | 0.25 | 0.00 | 67 | 1008.9 |
| 20260508185603 | 15 | 184 | 12.9 | 19.3 | 0.00 | 0.25 | 0.00 | 68 | 1008.9 |
| 20260508185016 | 15 | 182 | 11.3 | 19.3 | 0.00 | 0.25 | 0.00 | 68 | 1009.0 |
| 20260508184003 | 15 | 172 | 12.9 | 19.3 | 0.00 | 0.25 | 0.00 | 70 | 1009.1 |
| 20260508183413 | 15 | 169 | 12.9 | 19.3 | 0.00 | 0.25 | 0.00 | 71 | 1009.2 |
| 20260508182617 | 15 | 170 | 9.7 | 17.7 | 0.00 | 0.25 | 0.00 | 68 | 1009.3 |
| 20260508181603 | 15 | 195 | 8.0 | 17.7 | 0.00 | 0.25 | 0.00 | 67 | 1009.3 |
| 20260508180803 | 15 | 175 | 9.7 | 17.7 | 0.00 | 0.25 | 0.00 | 70 | 1009.4 |
| 20260508180213 | 15 | 179 | 9.7 | 17.7 | 0.00 | 0.25 | 0.00 | 70 | 1009.5 |
| 20260508175812 | 15 | 180 | 8.0 | 16.1 | 0.00 | 0.25 | 0.00 | 69 | 1009.5 |
| 20260508175016 | 15 | 192 | 8.0 | 14.5 | 0.00 | 0.25 | 0.00 | 67 | 1009.6 |
| 20260508174003 | 15 | 188 | 8.0 | 14.5 | 0.00 | 0.25 | 0.00 | 67 | 1009.7 |
| 20260508173203 | 15 | 182 | 9.7 | 19.3 | 0.00 | 0.25 | 0.00 | 70 | 1009.9 |
| 20260508172403 | 15 | 186 | 8.0 | 16.1 | 0.00 | 0.25 | 0.00 | 71 | 1010.0 |
| 20260508171603 | 15 | 184 | 8.0 | 14.5 | 0.00 | 0.25 | 0.00 | 71 | 1010.1 |
| 20260508170803 | 14 | 178 | 9.7 | 16.1 | 0.00 | 0.25 | 0.00 | 67 | 1010.5 |
| 20260508170003 | 14 | 179 | 6.4 | 16.1 | 0.00 | 0.25 | 0.00 | 70 | 1010.5 |
| 20260508165813 | 14 | 178 | 6.4 | 16.1 | 0.00 | 0.25 | 0.00 | 70 | 1010.5 |
| 20260508165017 | 14 | 174 | 8.0 | 16.1 | 0.00 | 0.25 | 0.00 | 70 | 1010.6 |
| 20260508164003 | 14 | 181 | 6.4 | 17.7 | 0.00 | 0.25 | 0.00 | 69 | 1010.6 |
| 20260508163203 | 14 | 207 | 3.2 | 8.0 | 0.00 | 0.25 | 0.00 | 72 | 1010.7 |
| 20260508162403 | 13 | 198 | 4.8 | 9.7 | 0.00 | 0.25 | 0.00 | 70 | 1010.7 |
| 20260508161603 | 13 | 193 | 4.8 | 9.7 | 0.00 | 0.25 | 0.00 | 72 | 1010.8 |
| 20260508160803 | 13 | 194 | 4.8 | 11.3 | 0.00 | 0.25 | 0.00 | 70 | 1011.1 |
| 20260508160003 | 13 | 200 | 4.8 | 11.3 | 0.00 | 0.25 | 0.00 | 72 | 1011.1 |
| 20260508155814 | 13 | 199 | 4.8 | 11.3 | 0.00 | 0.25 | 0.00 | 73 | 1011.2 |
| 20260508154803 | 13 | 181 | 6.4 | 12.9 | 0.00 | 0.25 | 0.00 | 75 | 1011.1 |
| 20260508154003 | 12 | 191 | 4.8 | 11.3 | 0.00 | 0.25 | 0.00 | 78 | 1011.1 |
| 20260508153415 | 12 | 193 | 4.8 | 11.3 | 0.00 | 0.25 | 0.00 | 80 | 1011.1 |
| 20260508152403 | 12 | 199 | 4.8 | 9.7 | 0.00 | 0.25 | 0.00 | 80 | 1011.1 |
| 20260508151812 | 12 | 191 | 6.4 | 12.9 | 0.00 | 0.25 | 0.00 | 82 | 1011.1 |
| 20260508151016 | 12 | 190 | 4.8 | 12.9 | 0.00 | 0.25 | 0.00 | 84 | 1011.1 |
| 20260508150215 | 11 | 199 | 4.8 | 9.7 | 0.00 | 0.25 | 0.00 | 84 | 1011.2 |
| 20260508145814 | 11 | 195 | 4.8 | 8.0 | 0.00 | 0.25 | 0.00 | 84 | 1011.2 |
| 20260508144803 | 11 | 189 | 4.8 | 9.7 | 0.00 | 0.25 | 0.00 | 86 | 1011.2 |
| 20260508144003 | 11 | 184 | 6.4 | 11.3 | 0.00 | 0.25 | 0.00 | 87 | 1011.2 |
| 20260508143203 | 10 | 173 | 8.0 | 11.3 | 0.00 | 0.25 | 0.00 | 89 | 1011.2 |
| 20260508142403 | 10 | 169 | 9.7 | 12.9 | 0.00 | 0.25 | 0.00 | 89 | 1011.2 |
| 20260508141603 | 10 | 172 | 6.4 | 11.3 | 0.00 | 0.25 | 0.00 | 89 | 1011.1 |
| 20260508140803 | 10 | 181 | 4.8 | 9.7 | 0.00 | 0.25 | 0.00 | 89 | 1011.2 |
| 20260508140216 | 10 | 183 | 4.8 | 9.7 | 0.00 | 0.25 | 0.00 | 90 | 1011.3 |
| 20260508135815 | 10 | 192 | 4.8 | 9.7 | 0.00 | 0.25 | 0.00 | 91 | 1011.3 |
| 20260508134803 | 9 | 182 | 6.4 | 11.3 | 0.00 | 0.25 | 0.00 | 92 | 1011.4 |
| 20260508134003 | 8 | 190 | 6.4 | 11.3 | 0.00 | 0.25 | 0.00 | 93 | 1011.7 |
| 20260508133416 | 8 | 188 | 6.4 | 11.3 | 0.00 | 0.25 | 0.00 | 94 | 1011.7 |
| 20260508132615 | 8 | 180 | 6.4 | 9.7 | 0.00 | 0.25 | 0.00 | 97 | 1011.7 |
| 20260508131603 | 8 | 185 | 4.8 | 11.3 | 0.00 | 0.25 | 0.00 | 94 | 1011.8 |
| 20260508130803 | 8 | 178 | 4.8 | 11.3 | 0.00 | 0.25 | 0.00 | 94 | 1011.8 |
| 20260508130216 | 8 | 172 | 3.2 | 8.0 | 0.00 | 0.25 | 0.00 | 95 | 1011.7 |
| 20260508125816 | 8 | 174 | 3.2 | 8.0 | 0.00 | 0.25 | 0.00 | 95 | 1011.7 |
| 20260508124803 | 7 | 174 | 3.2 | 6.4 | 0.00 | 0.25 | 0.00 | 95 | 1011.6 |
| 20260508124003 | 7 | 174 | 1.6 | 3.2 | 0.00 | 0.25 | 0.00 | 95 | 1011.6 |
| 20260508123203 | 7 | 174 | 1.6 | 6.4 | 0.00 | 0.25 | 0.00 | 95 | 1011.7 |
| 20260508122403 | 7 | 168 | 1.6 | 6.4 | 0.00 | 0.25 | 0.00 | 95 | 1011.6 |
| 20260508121814 | 6 | 165 | 1.6 | 3.2 | 0.00 | 0.25 | 0.00 | 95 | 1011.4 |
| 20260508121013 | 6 | 165 | 1.6 | 6.4 | 0.00 | 0.25 | 0.00 | 95 | 1011.4 |
| 20260508120217 | 6 | 170 | 3.2 | 8.0 | 0.00 | 0.25 | 0.00 | 95 | 1011.4 |
| 20260508115816 | 6 | 175 | 4.8 | 8.0 | 0.00 | 0.25 | 0.00 | 95 | 1011.5 |
| 20260508115015 | 6 | 173 | 4.8 | 8.0 | 0.00 | 0.25 | 0.00 | 95 | 1011.5 |
| 20260508114214 | 6 | 0 | 0.0 | 0.0 | 0.00 | 0.25 | 0.00 | 95 | 1011.3 |
| 20260508113412 | 6 | 0 | 0.0 | 0.0 | 0.00 | 0.25 | 0.00 | 95 | 1011.2 |
| 20260508112403 | 6 | 0 | 0.0 | 0.0 | 0.00 | 0.25 | 0.00 | 95 | 1011.2 |
| 20260508111603 | 6 | 0 | 0.0 | 0.0 | 0.00 | 0.25 | 0.00 | 95 | 1011.1 |
| 20260508110803 | 6 | 0 | 0.0 | 0.0 | 0.00 | 0.25 | 0.00 | 95 | 1011.2 |
| 20260508110212 | 6 | 0 | 0.0 | 0.0 | 0.00 | 0.25 | 0.00 | 95 | 1011.3 |
| 20260508105817 | 6 | 0 | 0.0 | 0.0 | 0.00 | 0.25 | 0.00 | 95 | 1011.3 |
| 20260508104803 | 5 | 171 | 1.6 | 3.2 | 0.00 | 0.25 | 0.00 | 95 | 1011.1 |
| 20260508104003 | 5 | 171 | 0.0 | 1.6 | 0.00 | 0.25 | 0.00 | 95 | 1011.0 |
| 20260508103413 | 5 | 171 | 1.6 | 6.4 | 0.00 | 0.25 | 0.00 | 95 | 1011.0 |
| 20260508102617 | 5 | 171 | 0.0 | 6.4 | 0.00 | 0.25 | 0.00 | 95 | 1011.2 |
| 20260508101603 | 5 | 0 | 0.0 | 0.0 | 0.00 | 0.25 | 0.00 | 95 | 1011.2 |
| 20260508101014 | 5 | 0 | 0.0 | 0.0 | 0.00 | 0.25 | 0.00 | 95 | 1011.1 |
| 20260508100213 | 5 | 171 | 0.0 | 3.2 | 0.00 | 0.25 | 0.00 | 94 | 1011.1 |
| 20260508095603 | 5 | 171 | 0.0 | 3.2 | 0.00 | 0.25 | 0.00 | 94 | 1011.1 |
| 20260508094803 | 5 | 174 | 1.6 | 6.4 | 0.00 | 0.25 | 0.00 | 94 | 1011.0 |
| 20260508094003 | 6 | 0 | 0.0 | 0.0 | 0.00 | 0.25 | 0.00 | 95 | 1010.8 |
| 20260508093414 | 6 | 0 | 0.0 | 0.0 | 0.00 | 0.25 | 0.00 | 95 | 1010.8 |
| 20260508092403 | 5 | 192 | 1.6 | 4.8 | 0.00 | 0.25 | 0.00 | 94 | 1010.8 |
| 20260508091816 | 5 | 192 | 3.2 | 6.4 | 0.00 | 0.25 | 0.00 | 94 | 1010.9 |
| 20260508091015 | 5 | 194 | 1.6 | 4.8 | 0.00 | 0.25 | 0.00 | 94 | 1010.9 |
| 20260508090214 | 6 | 0 | 0.0 | 0.0 | 0.00 | 0.25 | 0.00 | 95 | 1010.9 |
| 20260508085813 | 6 | 0 | 0.0 | 0.0 | 0.00 | 0.25 | 0.00 | 95 | 1011.1 |
| 20260508084803 | 6 | 0 | 0.0 | 0.0 | 0.00 | 0.25 | 0.00 | 94 | 1011.2 |
| 20260508084216 | 5 | 194 | 0.0 | 3.2 | 0.00 | 0.25 | 0.00 | 94 | 1011.2 |
| 20260508083203 | 5 | 197 | 4.8 | 6.4 | 0.00 | 0.25 | 0.00 | 93 | 1011.2 |
| 20260508082613 | 6 | 198 | 3.2 | 6.4 | 0.00 | 0.25 | 0.00 | 94 | 1011.3 |
| 20260508081817 | 6 | 198 | 3.2 | 4.8 | 0.00 | 0.25 | 0.00 | 93 | 1011.2 |
| 20260508081016 | 6 | 198 | 0.0 | 3.2 | 0.00 | 0.25 | 0.00 | 93 | 1011.2 |
| 20260508080214 | 6 | 0 | 0.0 | 0.0 | 0.00 | 0.25 | 0.00 | 93 | 1011.1 |
| 20260508075603 | 6 | 0 | 0.0 | 0.0 | 0.00 | 0.25 | 0.00 | 93 | 1011.1 |
| 20260508074803 | 6 | 198 | 1.6 | 3.2 | 0.00 | 0.25 | 0.00 | 93 | 1011.1 |
| 20260508074216 | 6 | 198 | 3.2 | 4.8 | 0.00 | 0.25 | 0.00 | 93 | 1011.2 |
| 20260508073203 | 6 | 0 | 0.0 | 0.0 | 0.00 | 0.25 | 0.00 | 94 | 1011.2 |
| 20260508072614 | 6 | 0 | 0.0 | 0.0 | 0.00 | 0.25 | 0.00 | 94 | 1011.2 |
| 20260508071603 | 6 | 0 | 0.0 | 0.0 | 0.00 | 0.25 | 0.00 | 94 | 1011.2 |
| 20260508070803 | 6 | 0 | 0.0 | 0.0 | 0.00 | 0.25 | 0.00 | 94 | 1011.3 |
| 20260508070004 | 6 | 198 | 1.6 | 4.8 | 0.00 | 0.25 | 0.00 | 94 | 1011.3 |
| 20260508065603 | 6 | 188 | 3.2 | 9.7 | 0.00 | 0.25 | 0.00 | 94 | 1011.3 |